Tracking 31027 objects as of 19-Jul-2025
HD Live streaming from Space Station
objects crossing your sky now

ARIANE 42P+ DEB

Track ARIANE 42P+ DEB now!
10-day predictions


NORAD ID: 34184
Int'l Code: 1992-072Q
Perigee: 300.3 km
Apogee: 24,835.1 km
Inclination: 6.9 °
Period: 432.3 minutes
Semi major axis: 18938 km
RCS: 0.3004 m2 (medium)
Launch date: October 28, 1992
Source: France (FR)
Launch site: FRENCH GUIANA (FRGUI)

Note: This is SATELLITE DEBRIS
Your satellite tracking list
ABS 3
Track 1 satellite(s)




NASA's NSSDC Master Catalog

Two Line Element Set (TLE):
1 34184U 92072Q   25196.27568135  .00003687  00000-0  12550-2 0  9999
2 34184   6.9440 258.4566 6477445 328.3155   5.4776  3.33102411264330
Source of the keplerian elements: AFSPC